Miscellaneous Local Product
Issued by NWS Hastings, NE

Home | Current Version | Previous Version | Text Only | Print | Product List | Glossary Off
Versions: 1 2 3 4 5 6 7 8 9 10 11 12 13 14 15 16 17 18 19 20 21 22 23 24 25 26 27 28 29 30 31 32 33 34 35 36 37 38 39 40 41 42 43 44 45 46 47 48 49 50

699
AXUS43 KGID 222302
MISGRI

GID CWA HOURLY WEATHER ROUNDUP
NATIONAL WEATHER SERVICE HASTINGS NE
600 PM CDT SUN MAY 22 2016

NOTE: "FAIR" INDICATES FEW OR NO CLOUDS BELOW 12,000 FEET WITH NO
SIGNIFICANT WEATHER AND/OR OBSTRUCTIONS TO VISIBILITY.

...SOUTH CENTRAL NEBRASKA...

CITY           SKY/WX    TMP DP  RH WIND       PRES   REMARKS
GRAND ISLAND   PTSUNNY   79  65  62 S23G33    29.78F
HASTINGS       PTSUNNY   78  65  63 S23G32    29.79F
KEARNEY        MOSUNNY   79  64  61 S26G39    29.76F
ORD            MOSUNNY   78  65  63 S21G35    29.71F
YORK           MOSUNNY   82  64  54 S24G32    29.81F
AURORA         MOSUNNY   80  63  56 S22G32    29.79F
LEXINGTON      PTSUNNY   79  65  63 SE24G36   29.71F
HOLDREGE       PTSUNNY   77  65  67 S29G36    29.75F
HEBRON         CLOUDY    81  64  55 S21G29    29.83F

...NEBRASKA PANHANDLE...

CITY           SKY/WX    TMP DP  RH WIND       PRES   REMARKS
CHADRON        SUNNY     76  39  26 VRB3      29.68F
ALLIANCE       SUNNY     78  50  37 CALM      29.67F
SCOTTSBLUFF    SUNNY     79  43  27 W6        29.69F
SIDNEY         SUNNY     80  44  27 S10       29.68F

...WESTERN AND NORTH CENTRAL NEBRASKA...

CITY           SKY/WX    TMP DP  RH WIND       PRES   REMARKS
VALENTINE      TSTM      71  63  75 SE29G37   29.54F
AINSWORTH      CLOUDY    76  64  66 SE23G30   29.65F
ONEILL         MOSUNNY   78  64  63 S20G36    29.73F
BROKEN BOW     MOSUNNY   79  65  62 S29G41    29.70F
IMPERIAL       SUNNY     86  52  30 S23G37    29.62F
NORTH PLATTE   MOSUNNY   82  65  56 S24G38    29.64F
MCCOOK         SUNNY     84  66  54 S30G43    29.67F

...EASTERN NEBRASKA...

CITY           SKY/WX    TMP DP  RH WIND       PRES   REMARKS
NORFOLK        CLOUDY    81  63  54 S22G31    29.77F
SO SIOUX CITY  MOSUNNY   84  60  44 S24G32    29.81F
TEKAMAH        SUNNY     83  58  42 SE24G33   29.83F
COLUMBUS       CLOUDY    82  63  51 S23G29    29.81F
ALBION         CLOUDY    79  63  56 S23G36    29.77F
OMAHA EPPLEY   CLOUDY    82  61  48 SE23G31   29.86F
MILLARD        MOSUNNY   82  63  51 SE16G26   29.85F
LINCOLN        PTSUNNY   82  62  50 S22G28    29.83F
NEBRASKA CITY  SUNNY     81  59  47 S21       29.88F
BEATRICE       CLOUDY    80  64  57 S13G22    29.85F
FALLS CITY     MOSUNNY   81  62  52 S20G28    29.88F

...NORTHERN KANSAS...

CITY           SKY/WX    TMP DP  RH WIND       PRES   REMARKS
GOODLAND       SUNNY     87  44  22 S31G44    29.67F
HILL CITY      MOSUNNY   81  66  60 S22G37    29.74F
NORTON         PTCLDY    79  61  53 SE25G36   29.73S
PHILLIPSBURG   PTSUNNY   81  66  61 SE18G30   29.76F
SMITH CENTER   CLOUDY    73  66  78 SE24G32   29.80F
BELOIT         CLOUDY    77  66  69 S15G23    29.81F
HAYS           MOSUNNY   81  64  57 S33G41    29.77F
RUSSELL        MOSUNNY   80  67  64 S23G37    29.78F
CONCORDIA      CLOUDY    80  65  59 S20G28    29.84F
SALINA         MOSUNNY   82  67  60 S22G33    29.84F
TOPEKA           N/A     80  63  55 SE17      29.90F



USA.gov is the U.S. government's official web portal to all federal, state and local government web resources and services.